This demonstration page uses our WeatherBlox Daily Observations layout. Learn more.

Left ArrowRight Arrow

39.51506, -84.39828

Hourly Observations for March 1, 2018

Temp ( °F °C ) Dew Point ( °F °C ) Humidity (%) Winds ( mph kmh ) Pressure ( in mb ) Visibility ( mi km ) Precip ( " mm )
12:15 am 00:15 Cloudy with Drizzle 51 10.3 50 10.1 99 99 ENE 3 6 29.85 1011 1.5 2.41401 N/A
12:35 am 00:35 Cloudy with Drizzle 51 10.3 50 10.1 99 99 NE 3 6 29.83 1010 1.25 2.011675 0.01 0.254
12:55 am 00:55 Cloudy with Drizzle 51 10.3 50 10.1 99 99 ENE 5 7 29.83 1010 2 3.21868 0.01 0.254
1:15 am 01:15 Cloudy with Drizzle 51 10.3 50 10.1 99 99 NE 3 6 29.83 1010 2 3.21868 N/A
1:35 am 01:35 Cloudy with Drizzle 51 10.4 50 10.2 99 99 NE 3 6 29.8 1009 1.5 2.41401 0.01 0.254
1:55 am 01:55 Cloudy with Drizzle 51 10.4 51 10.3 99 99 N N/A 29.8 1009 1.75 2.816345 0.01 0.254
2:15 am 02:15 Cloudy with Drizzle 51 10.5 51 10.4 99 99 SE 3 6 29.83 1010 1.75 2.816345 N/A
2:35 am 02:35 Cloudy with Drizzle 51 10.7 51 10.6 99 99 N N/A 29.83 1010 1.5 2.41401 N/A
2:55 am 02:55 Cloudy with Drizzle 51 10.8 51 10.6 99 99 N N/A 29.83 1010 2.5 4.02335 N/A
3:15 am 03:15 Cloudy with Drizzle 52 10.9 51 10.6 98 98 N N/A 29.8 1009 2 3.21868 0.01 0.254
3:35 am 03:35 Cloudy with Mist and Fog 51 10.6 51 10.4 99 99 ENE 3 6 29.77 1008 2 3.21868 0.01 0.254
3:55 am 03:55 Cloudy with Light Rain 51 10.6 51 10.5 99 99 ENE 3 6 29.77 1008 1.75 2.816345 0.01 0.254
4:15 am 04:15 Cloudy with Rain 51 10.7 51 10.6 99 99 N N/A 29.77 1008 1.75 2.816345 0.02 0.508
4:35 am 04:35 Cloudy with Heavy Rain 52 10.9 51 10.7 99 99 N N/A 29.77 1008 1.75 2.816345 0.09 2.286
4:55 am 04:55 Cloudy with Heavy Rain 52 11.1 52 10.9 99 99 N N/A 29.77 1008 4 6.43736 0.21 5.334
5:15 am 05:15 Cloudy with Rain 52 11.1 52 10.9 99 99 ESE 6 9 29.74 1007 4 6.43736 0.06 1.524
5:35 am 05:35 Cloudy with Rain 53 11.4 52 11.1 98 98 SE 3 6 29.71 1006 5 8.0467 0.09 2.286
5:55 am 05:55 Cloudy with Rain 53 11.6 52 11.2 97 97 WSW 5 7 29.74 1007 1.5 2.41401 0.11 2.794
6:15 am 06:15 Cloudy with Light Rain 53 11.5 52 11.2 98 98 SW 5 7 29.74 1007 3.5 5.63269 0.03 0.762
6:35 am 06:35 Cloudy with Rain 53 11.8 53 11.6 99 99 SSE 5 7 29.71 1006 3.5 5.63269 0.07 1.778
6:55 am 06:55 Cloudy with Light Rain 54 12 53 11.6 97 97 SW 3 6 29.71 1006 3 4.82802 0.09 2.286
7:15 am 07:15 Cloudy with Light Rain 54 12 53 11.8 99 99 S 5 7 29.71 1006 3 4.82802 0.01 0.254
7:35 am 07:35 Cloudy with Rain 54 12.4 54 12.1 98 98 S 8 13 29.68 1005 1.5 2.41401 0.06 1.524
7:55 am 07:55 Cloudy with Light Rain 55 12.5 54 12.2 98 98 SSW 5 7 29.68 1005 1 1.60934 0.08 2.032
8:15 am 08:15 Cloudy with Light Rain 55 12.6 54 12.3 98 98 SSW 7 11 29.68 1005 1.5 2.41401 N/A
8:35 am 08:35 Cloudy with Mist and Fog 55 12.7 54 12.3 97 97 SSW 7 11 29.68 1005 7 11.26538 N/A
8:55 am 08:55 Cloudy with Drizzle 55 12.9 54 12.4 97 97 S 9 15 29.65 1004 7 11.26538 0.01 0.254
9:15 am 09:15 Cloudy with Rain 56 13.1 55 12.6 97 97 S 9 15 29.65 1004 3.5 5.63269 N/A
9:35 am 09:35 Cloudy 56 13.2 55 12.7 97 97 SSW 10 17 29.62 1003 7 11.26538 N/A
9:55 am 09:55 Cloudy 56 13.4 55 12.7 96 96 SSW 10 17 29.62 1003 7 11.26538 N/A
10:15 am 10:15 Cloudy 56 13.4 55 12.7 96 96 SSW 9 15 29.62 1003 10 16.0934 N/A
10:35 am 10:35 Cloudy 56 13.6 55 12.9 96 96 SSW 13 20 29.62 1003 10 16.0934 N/A
10:55 am 10:55 Cloudy with Mist and Fog 57 13.8 55 13 95 95 SW 14 22 29.62 1003 7 11.26538 N/A
11:15 am 11:15 Cloudy with Light Rain 57 13.8 56 13.1 96 96 SW 16 26 29.59 1002 5 8.0467 N/A
11:35 am 11:35 Cloudy with Rain 57 14 56 13.2 95 95 SW 15 24 29.59 1002 5 8.0467 0.01 0.254
11:55 am 11:55 Cloudy with Rain 57 14 56 13.3 96 96 SSW 14 22 29.59 1002 4 6.43736 0.04 1.016
12:15 pm 12:15 Cloudy with Light Rain 58 14.2 56 13.4 95 95 SW 17 28 29.59 1002 7 11.26538 N/A
12:35 pm 12:35 Cloudy with Light Rain 58 14.5 56 13.6 94 94 SW 13 20 29.56 1001 10 16.0934 0.01 0.254
12:55 pm 12:55 Cloudy with Rain 57 14 56 13.3 96 96 SW 16 26 29.56 1001 5 8.0467 0.04 1.016
1:15 pm 13:15 Cloudy with Light Rain 58 14.2 56 13.4 95 95 SW 15 24 29.53 1000 7 11.26538 0.01 0.254
1:35 pm 13:35 Cloudy with Rain 58 14.3 56 13.2 93 93 WSW 18 30 29.53 1000 10 16.0934 0.02 0.508
1:55 pm 13:55 Cloudy with Rain 58 14.5 54 12.4 87 87 WSW 20 31 29.53 1000 7 11.26538 0.03 0.762
2:15 pm 14:15 Cloudy with Light Rain 57 14 54 12 88 88 W 23 37 29.53 1000 10 16.0934 N/A
2:35 pm 14:35 Mostly Cloudy 49 9.7 46 7.5 86 86 NW 20 31 29.62 1003 10 16.0934 N/A
2:55 pm 14:55 Cloudy 47 8.1 43 5.9 86 86 NW 20 31 29.65 1004 10 16.0934 N/A
3:15 pm 15:15 Cloudy 45 7 41 4.8 86 86 NW 16 26 29.68 1005 10 16.0934 N/A
3:35 pm 15:35 Cloudy 44 6.7 39 4.1 84 84 NW 23 37 29.68 1005 10 16.0934 N/A
3:55 pm 15:55 Cloudy 43 6.3 39 3.7 84 84 WNW 25 41 29.74 1007 10 16.0934 N/A
4:15 pm 16:15 Cloudy 42 5.6 37 2.8 82 82 NW 22 35 29.77 1008 10 16.0934 N/A
4:35 pm 16:35 Cloudy 42 5.3 37 2.5 82 82 NW 20 31 29.8 1009 10 16.0934 N/A
4:55 pm 16:55 Cloudy 41 5.1 35 1.7 79 79 NW 15 24 29.83 1010 10 16.0934 N/A
5:15 pm 17:15 Cloudy 42 5.3 36 2 80 80 NW 21 33 29.83 1010 10 16.0934 N/A
5:35 pm 17:35 Cloudy 41 5 35 1.4 78 78 NNW 16 26 29.85 1011 10 16.0934 N/A
5:55 pm 17:55 Cloudy with Drizzle 40 4.7 36 2.1 83 83 NW 13 20 29.85 1011 10 16.0934 N/A
6:15 pm 18:15 Cloudy with Drizzle 40 4.4 37 2.8 89 89 NW 14 22 29.88 1012 5 8.0467 N/A
6:35 pm 18:35 Cloudy with Drizzle 40 4.6 37 2.6 87 87 NW 14 22 29.88 1012 10 16.0934 N/A
6:55 pm 18:55 Cloudy 41 4.9 37 2.9 87 87 WNW 10 17 29.91 1013 10 16.0934 N/A
7:15 pm 19:15 Cloudy 42 5.3 38 3.1 86 86 NW 15 24 29.94 1014 10 16.0934 N/A
7:35 pm 19:35 Cloudy 42 5.5 37 2.7 82 82 NW 15 24 29.94 1014 10 16.0934 N/A
7:55 pm 19:55 Cloudy with Drizzle 41 5.2 37 2.9 85 85 NW 13 20 29.97 1015 5 8.0467 N/A
8:15 pm 20:15 Cloudy with Light Rain 40 4.4 36 2.4 87 87 NNW 13 20 30 1016 7 11.26538 N/A
8:35 pm 20:35 Cloudy 40 4.5 36 2.4 86 86 NW 17 28 30 1016 10 16.0934 N/A
8:55 pm 20:55 Cloudy with Drizzle 40 4.7 36 2.3 85 85 NW 12 19 30 1016 10 16.0934 N/A
9:15 pm 21:15 Cloudy 41 4.9 36 2.4 84 84 NW 12 19 30.03 1017 10 16.0934 N/A
9:35 pm 21:35 Cloudy with Light Rain 40 4.7 37 2.8 88 88 NW 14 22 30.06 1018 5 8.0467 N/A
9:55 pm 21:55 Cloudy 40 4.4 36 2.4 87 87 NNW 14 22 30.06 1018 10 16.0934 N/A
10:15 pm 22:15 Cloudy 40 4.4 36 2 85 85 NNW 9 15 30.06 1018 10 16.0934 N/A
10:35 pm 22:35 Cloudy 40 4.4 36 2 85 85 NW 13 20 30.09 1019 10 16.0934 N/A
10:55 pm 22:55 Cloudy 40 4.5 35 1.5 81 81 NNW 12 19 30.09 1019 10 16.0934 N/A
11:15 pm 23:15 Cloudy 40 4.4 33 0.7 77 77 NNW 16 26 30.09 1019 10 16.0934 N/A
11:35 pm 23:35 Cloudy 40 4.3 34 1 79 79 NNW 15 24 30.15 1021 10 16.0934 N/A
11:55 pm 23:55 Partly Cloudy 39 3.9 31 -0.8 72 72 NW 15 24 30.15 1021 10 16.0934 N/A

Powered by AerisWeather